Total_Precipitation_Accumulation
2.14 1.82 2.84 2.88 2.57 2.36 2.36 2.55 2.77 2.74 2.69 2.57 2.49 2.33 2.07 1.82 1.70 1.67 1.54 1.55 1.52 1.56 1.68 1.73 1.82 1.89 1.77 1.68 1.70 1.84 1.92 1.93 1.96 1.93 1.66 1.64 1.78 1.75 1.70 1.95 2.63 3.07 2.57
1.43 1.47 2.61 2.76 2.45 2.28 2.26 2.56 2.79 2.82 2.85 2.79 2.54 2.26 2.02 1.75 1.60 1.59 1.57 1.49 1.42 1.41 1.46 1.60 1.80 2.00 1.97 1.91 1.92 1.99 1.92 1.97 2.00 2.03 1.99 1.90 1.86 1.89 1.83 1.91 2.42 2.74 2.37
1.14 1.26 1.94 2.66 2.49 2.39 2.49 2.62 2.66 2.64 2.56 2.48 2.33 2.13 1.99 1.77 1.66 1.65 1.61 1.49 1.33 1.31 1.27 1.43 1.70 1.87 2.00 1.96 1.88 1.81 1.74 1.82 1.87 2.08 2.60 3.07 2.38 2.05 1.98 1.92 2.13 2.11 2.08
1.10 1.18 1.50 2.50 2.59 2.51 2.58 2.61 2.47 2.38 2.24 2.08 2.06 2.02 1.88 1.79 1.68 1.60 1.57 1.49 1.33 1.28 1.27 1.39 1.70 1.75 1.80 1.83 1.79 1.62 1.46 1.59 1.74 2.00 2.54 3.09 2.87 2.50 2.31 2.20 2.24 2.00 2.02
1.07 1.18 1.64 2.45 2.53 2.50 2.44 2.44 2.47 2.29 2.13 1.89 1.78 1.84 1.80 1.74 1.58 1.54 1.55 1.43 1.32 1.30 1.19 1.25 1.48 1.62 1.78 1.78 1.64 1.50 1.38 1.50 1.74 1.58 1.91 2.52 3.10 2.93 2.37 2.32 2.36 2.13 2.08
1.15 1.20 1.61 2.20 2.35 2.40 2.33 2.27 2.18 2.04 1.89 1.80 1.69 1.75 1.79 1.74 1.59 1.50 1.44 1.41 1.32 1.28 1.24 1.22 1.35 1.58 1.73 1.69 1.63 1.62 1.60 1.59 1.49 1.56 1.94 2.43 3.01 2.93 2.46 2.30 2.11 2.18 2.16
1.24 1.18 1.48 2.02 2.13 2.23 2.16 1.98 1.94 1.93 1.79 1.69 1.63 1.60 1.62 1.65 1.59 1.51 1.54 1.51 1.38 1.33 1.36 1.34 1.43 1.47 1.55 1.57 1.64 1.67 1.69 1.48 1.38 1.70 1.85 2.27 2.60 2.74 2.39 2.23 2.19 2.37 2.30
1.29 1.18 1.30 1.77 1.97 2.04 1.98 1.92 1.90 1.86 1.75 1.60 1.49 1.44 1.48 1.51 1.43 1.37 1.41 1.41 1.39 1.39 1.45 1.39 1.40 1.34 1.37 1.48 1.61 1.70 1.74 1.41 1.23 1.45 1.54 2.05 2.75 2.82 2.37 2.25 2.24 2.42 2.54
1.54 1.38 1.28 1.39 1.59 1.76 1.94 1.96 2.02 2.00 1.94 1.78 1.57 1.46 1.47 1.40 1.25 1.20 1.32 1.40 1.48 1.51 1.60 1.55 1.52 1.41 1.41 1.55 1.68 1.77 1.73 1.39 1.36 1.49 1.35 2.10 2.97 2.68 2.20 2.03 2.03 2.16 2.33
1.47 1.43 1.33 1.37 1.44 1.52 1.69 1.94 2.20 2.31 2.39 2.11 1.74 1.58 1.44 1.28 1.21 1.25 1.32 1.44 1.61 1.74 1.86 1.85 1.75 1.61 1.60 1.63 1.70 1.67 1.48 1.20 1.32 1.36 1.69 2.16 2.86 2.68 2.16 1.88 1.90 1.83 1.93
1.08 1.14 1.19 1.26 1.38 1.45 1.52 1.62 2.02 2.27 2.43 2.06 1.59 1.59 1.44 1.24 1.18 1.29 1.34 1.75 1.87 1.94 2.12 2.18 2.04 1.87 1.72 1.63 1.66 1.57 1.22 0.99 1.16 1.43 1.89 2.48 2.86 2.70 2.19 1.94 1.73 1.70 1.69
0.91 0.86 0.87 0.87 0.96 1.15 1.26 1.55 1.88 1.94 2.07 1.74 1.50 1.50 1.44 1.49 1.43 1.18 1.31 1.78 2.00 2.08 1.95 1.96 2.08 1.85 1.53 1.29 1.24 1.20 1.07 1.04 1.17 1.40 1.93 2.77 3.01 2.76 2.30 1.98 1.70 1.66 1.67
0.69 0.68 0.67 0.70 0.73 0.90 1.24 1.55 1.81 1.94 2.02 1.99 1.91 1.69 1.65 1.53 1.34 1.19 1.21 1.30 1.44 1.51 1.44 1.54 1.62 1.48 1.39 1.24 1.18 1.11 1.03 1.16 1.46 1.53 2.06 2.87 3.21 2.95 2.50 2.14 1.83 1.77 1.79
0.70 0.72 0.64 0.56 0.62 0.77 0.97 1.21 1.55 1.76 1.84 1.81 1.73 1.43 1.48 1.50 1.34 1.30 1.40 1.47 1.45 1.45 1.61 1.65 1.66 1.58 1.43 1.24 1.20 1.23 1.17 1.16 1.41 1.61 2.11 2.58 3.13 3.35 2.98 2.53 2.25 2.11 2.05
0.80 0.90 0.85 0.68 0.66 0.77 0.88 0.94 1.12 1.32 1.40 1.67 1.72 1.34 1.21 1.25 1.35 1.38 1.29 1.48 1.57 1.60 1.66 1.73 1.67 1.58 1.57 1.39 1.39 1.40 1.41 1.27 1.36 1.46 1.81 2.18 2.67 3.36 3.53 3.19 2.83 2.57 2.40
0.66 0.78 0.83 0.82 0.85 0.88 0.88 0.88 0.88 0.90 1.06 1.21 1.24 1.07 1.01 1.03 1.19 1.41 1.33 1.33 1.44 1.63 1.75 1.76 1.70 1.77 1.76 1.54 1.52 1.56 1.53 1.46 1.49 1.54 1.70 1.70 1.85 2.40 3.02 3.35 3.38 3.13 2.80
0.54 0.61 0.70 0.77 0.84 0.91 1.02 1.03 0.90 0.87 0.97 1.01 0.99 0.98 1.00 0.97 1.12 1.38 1.32 1.23 1.25 1.40 1.60 1.83 1.90 1.90 1.69 1.60 1.62 1.63 1.52 1.49 1.51 1.69 1.73 1.75 1.65 1.72 2.17 2.62 3.08 3.14 3.12
0.51 0.53 0.59 0.59 0.70 0.83 1.02 1.13 1.09 1.07 1.12 1.05 0.92 0.87 0.86 0.86 0.93 1.20 1.28 1.20 1.19 1.36 1.62 1.89 2.08 2.13 1.93 1.89 1.92 1.84 1.62 1.55 1.51 1.65 1.71 1.78 1.88 1.66 1.65 1.78 2.12 2.52 2.75
0.49 0.50 0.53 0.57 0.60 0.67 0.84 0.99 1.00 1.00 1.06 1.03 0.96 0.92 0.85 0.81 0.88 1.13 1.36 1.39 1.36 1.50 1.63 1.65 1.91 2.08 2.19 2.11 1.93 1.80 1.71 1.70 1.67 1.62 1.75 1.76 1.82 1.76 1.61 1.33 1.36 1.65 2.02
0.49 0.51 0.57 0.58 0.58 0.59 0.65 0.78 0.90 0.88 0.91 0.98 0.94 0.98 1.02 1.04 1.07 1.29 1.55 1.58 1.65 1.71 1.80 2.00 2.30 2.33 2.26 2.26 2.03 1.77 1.62 1.65 1.71 1.81 1.81 1.79 1.84 1.69 1.54 1.37 1.24 1.10 1.37
0.47 0.48 0.54 0.61 0.60 0.55 0.53 0.63 0.74 0.78 0.89 0.99 1.08 1.19 1.21 1.19 1.26 1.48 1.67 1.91 2.03 1.92 1.94 2.19 2.49 2.63 2.42 2.25 2.36 2.21 2.01 1.81 1.78 1.73 1.74 1.81 1.84 1.78 1.66 1.59 1.49 1.34 1.31
0.38 0.40 0.47 0.51 0.50 0.46 0.43 0.51 0.64 0.78 0.89 1.07 1.27 1.51 1.46 1.33 1.36 1.37 1.63 1.82 1.92 2.02 2.05 2.16 2.47 2.82 2.59 2.30 2.53 2.96 2.74 2.51 2.01 1.66 1.79 1.83 1.88 1.83 1.73 1.57 1.57 1.47 1.43
0.32 0.37 0.44 0.47 0.48 0.47 0.54 0.72 1.04 1.35 1.51 1.58 1.62 1.86 1.92 1.78 1.72 1.66 1.68 1.78 1.86 2.03 2.17 2.22 2.29 2.65 2.72 2.49 2.45 3.07 3.06 2.85 2.61 2.09 1.74 1.80 1.92 1.97 1.93 1.83 1.69 1.62 1.52
0.33 0.40 0.45 0.47 0.56 0.58 0.72 1.05 1.51 1.86 2.03 2.00 2.06 2.15 2.26 2.20 2.03 2.02 2.01 2.08 2.00 1.98 2.06 2.05 2.06 2.32 2.67 2.72 2.54 2.39 2.36 2.47 2.82 2.56 2.00 1.84 1.87 1.88 1.98 1.85 1.85 1.89 1.84
0.42 0.46 0.52 0.62 0.79 0.96 1.09 1.28 1.61 1.78 1.87 2.00 2.15 2.42 2.62 2.70 2.64 2.59 2.47 2.29 2.07 2.00 2.05 2.08 2.11 2.23 2.37 2.54 2.52 2.35 2.31 2.27 2.14 2.34 2.32 2.10 1.90 1.77 1.87 1.90 1.89 1.90 1.97
0.56 0.63 0.66 0.84 1.01 1.06 1.18 1.31 1.44 1.53 1.67 1.90 2.08 2.35 2.53 2.59 2.64 2.56 2.34 2.05 1.87 1.83 1.91 2.04 2.05 2.13 2.15 2.24 2.23 2.11 2.12 2.11 2.08 2.24 2.17 2.18 2.14 1.77 1.62 1.69 1.75 1.80 1.77